FW6001 Weather Reports


Display with metric or nautical units.
time (UTC)temp
F
wind
direction
speed
MPH
gust
MPH
rain 1hr
in
rain 24hr
in
rain mn
in
humidity
%
barometer
mb
20260504120129 36 190 8.0 25.0 0.00 0.00 0.00 91 984.7
20260504081527 36 228 6.0 18.0 0.00 0.00 0.00 93 974.9
20260504050001 37 37 8.0 14.0 0.00 0.00 0.00 93 977.0
20260504044557 37 50 9.0 18.0 0.00 0.00 0.00 93 977.6
20260504043112 38 28 4.0 17.0 0.00 0.00 0.00 94 978.1
20260504041552 38 28 7.0 19.0 0.00 0.00 0.00 93 978.4
20260504040049 38 38 5.0 15.0 0.00 0.00 0.00 93 978.8
20260504034552 38 31 9.0 18.0 0.00 0.00 0.00 94 979.3
20260504033044 38 37 10.0 19.0 0.00 0.00 0.00 94 979.9
20260504031549 38 19 11.0 18.0 0.00 0.00 0.00 94 980.7
20260504030046 38 55 6.0 19.0 0.00 0.00 0.00 94 981.6
20260504024536 37 45 8.0 20.0 0.00 0.00 0.00 93 982.5
20260504023031 37 18 11.0 21.0 0.00 0.00 0.00 93 983.0
20260504021532 37 38 9.0 19.0 0.00 0.00 0.00 93 983.8
20260504020035 36 42 9.0 21.0 0.00 0.00 0.00 93 984.8
20260504014522 36 23 12.0 20.0 0.00 0.00 0.00 93 985.6
20260504013022 36 55 9.0 17.0 0.00 0.00 0.00 93 987.0
20260504011515 36 49 5.0 18.0 0.00 0.00 0.00 93 987.7
20260504010011 36 20 10.0 20.0 0.00 0.00 0.00 93 988.6
20260504004520 36 44 11.0 19.0 0.00 0.00 0.00 93 989.7
20260504003003 36 9 12.0 20.0 0.00 0.00 0.00 93 990.7
20260504001602 36 22 9.0 18.0 0.00 0.00 0.00 92 991.1
20260504000100 36 24 10.0 21.0 0.00 0.00 0.00 92 991.8
20260503234552 37 37 11.0 18.0 0.00 0.00 0.00 92 992.8
20260503233051 37 39 9.0 15.0 0.00 0.00 0.00 92 993.7
20260503231546 36 40 7.0 15.0 0.00 0.00 0.00 92 994.3
20260503230104 36 67 5.0 15.0 0.00 0.00 0.00 91 995.0
20260503224540 36 20 8.0 16.0 0.00 0.00 0.00 91 995.4
20260503223042 36 34 9.0 17.0 0.00 0.00 0.00 91 995.7
20260503221541 36 15 8.0 17.0 0.00 0.00 0.00 91 996.0
20260503220037 36 39 9.0 16.0 0.00 0.00 0.00 91 996.2
20260503214542 36 42 5.0 14.0 0.00 0.00 0.00 90 997.4
20260503213033 35 40 8.0 13.0 0.00 0.00 0.00 90 997.9
20260503211523 35 45 7.0 14.0 0.00 0.00 0.00 89 998.8
20260503210021 35 47 7.0 17.0 0.00 0.00 0.00 89 999.0
20260503204526 35 44 5.0 16.0 0.00 0.00 0.00 88 1000.0
20260503203016 36 37 6.0 17.0 0.00 0.00 0.00 88 1000.3
20260503201511 36 28 6.0 12.0 0.00 0.00 0.00 87 1001.4
20260503200008 37 25 6.0 16.0 0.00 0.00 0.00 86 1002.4
20260503194504 37 40 7.0 13.0 0.00 0.00 0.00 86 1003.2
20260503193004 37 21 5.0 18.0 0.00 0.00 0.00 85 1003.6
20260503191612 38 29 7.0 14.0 0.00 0.00 0.00 84 1004.6
20260503190058 38 28 5.0 16.0 0.00 0.00 0.00 83 1005.7
20260503184553 39 38 7.0 16.0 0.00 0.00 0.00 82 1005.9
20260503183057 40 44 4.0 13.0 0.00 0.00 0.00 80 1006.5
20260503181559 41 34 9.0 16.0 0.00 0.00 0.00 79 1006.7
20260503180051 43 39 6.0 15.0 0.00 0.00 0.00 77 1007.0
20260503174553 44 34 10.0 16.0 0.00 0.00 0.00 74 1007.5
20260503173046 46 49 5.0 12.0 0.00 0.00 0.00 71 1008.0
20260503171542 47 15 4.0 6.0 0.00 0.00 0.00 70 1008.1